DW0731 Scarsdale NY US current weather conditions

sailwx.info

Last reported at 2019-Dec-06 08:01 UTC.
Time now 2019-Dec-06 08:51 UTC

Location: N 40°59' W 073°46'.
View on Google Maps.

See reports from other nearby stations

  
Tides and Currents Weather Stations Pressure Air Temp Water Temp Dewpoint Dewpoint Depression Visibility Wind Speed Wind Dir Waves Ship Positions
date/time (UTC)wind fromknots sea level pressurealtimeterstation pressurevisibilityair tempwater tempwave heightnotes
2019-Dec-06 08:01
2019-Dec-06 07:46
2019-Dec-06 07:31 258 1.1
2019-Dec-06 07:16 317 1.1
2019-Dec-06 07:01 265 0 gusting 4 1.1
2019-Dec-06 06:46 259 1.1
2019-Dec-06 06:31 273 1.1
2019-Dec-06 06:15 296 0 gusting 9 1.1
2019-Dec-06 06:01 269 1.7
2019-Dec-06 05:45 261 0 gusting 8 1.7
2019-Dec-06 05:31 277 1 gusting 11 1.7
2019-Dec-06 05:15 266 1 gusting 10 1.7
2019-Dec-06 05:01 260 0 gusting 9 1.7
2019-Dec-06 04:45 287 4 gusting 13 1.7
2019-Dec-06 04:30 237 1 gusting 12 1.7
2019-Dec-06 04:15 276 4 gusting 12 1.7
2019-Dec-06 04:00 269 0 gusting 10 1.7
2019-Dec-06 03:45 278 0 gusting 6 2.2
2019-Dec-06 03:30 333 2 gusting 11 2.2
2019-Dec-06 03:15 302 2.2
2019-Dec-06 03:00 304 0 gusting 7 2.2
2019-Dec-06 02:47 296 3 gusting 14 2.2
2019-Dec-06 02:32 251 1 gusting 11 1.7
2019-Dec-06 02:18 284 1 gusting 11 1.7
2019-Dec-06 02:02 257 1.7
2019-Dec-06 01:47 005 1 gusting 16 1.7
2019-Dec-06 01:31 220 3 gusting 13 1.7
2019-Dec-06 01:17 244 1.7
2019-Dec-06 01:01 257 1 gusting 11 1.7
2019-Dec-06 00:46 336 1 gusting 16 2.2
2019-Dec-06 00:31 334 3 gusting 14 2.2
2019-Dec-06 00:16 264 1.7
2019-Dec-06 00:01 261 1.7
2019-Dec-05 23:46 247 2.2
2019-Dec-05 23:31 306 0 gusting 6 2.2
2019-Dec-05 23:17 242 2 gusting 7 2.2
2019-Dec-05 23:01 257 4 gusting 14 2.8
2019-Dec-05 22:45 309 2 gusting 10 2.8
2019-Dec-05 22:30 296 3 gusting 13 2.8
2019-Dec-05 22:15 271 3 gusting 13 3.3
2019-Dec-05 22:00 300 2 gusting 8 2.8
2019-Dec-05 21:46 255 3 gusting 10 3.3
2019-Dec-05 21:31 279 4 gusting 16 3.3
2019-Dec-05 21:15 338 3 gusting 14 3.3
2019-Dec-05 21:00 248 1 gusting 12 3.3
2019-Dec-05 20:45 242 0 gusting 13 3.3
2019-Dec-05 20:30 239 2 gusting 13 3.9
2019-Dec-05 20:15 306 2 gusting 10 3.9
2019-Dec-05 20:00 296 6 gusting 18 3.9
2019-Dec-05 19:46 279 2 gusting 13 4.4
2019-Dec-05 19:32 360 1 gusting 15 4.4
2019-Dec-05 19:16 257 1 gusting 13 3.9
2019-Dec-05 19:02 246 3 gusting 12 3.9
2019-Dec-05 18:47 292 2 gusting 15 4.4
2019-Dec-05 18:32 268 3 gusting 11 4.4
2019-Dec-05 18:16 266 4 gusting 24 4.4
2019-Dec-05 18:02 331 3 gusting 16 5.0
2019-Dec-05 17:46 281 6 gusting 13 4.4
2019-Dec-05 17:31 274 2 gusting 13 4.4
2019-Dec-05 17:16 241 2 gusting 12 4.4
2019-Dec-05 17:01 301 6 gusting 19 3.9
2019-Dec-05 16:46 273 3.9
2019-Dec-05 16:32 252 1 gusting 13 3.3
2019-Dec-05 16:15 351 6 gusting 16 3.9
2019-Dec-05 16:01 306 5 gusting 15 4.4
2019-Dec-05 15:45 255 9 gusting 16 4.4
2019-Dec-05 15:30 309 4 gusting 18 4.4
2019-Dec-05 15:16 260 1 gusting 16 5.0
2019-Dec-05 15:01 331 6 gusting 13 5.0
2019-Dec-05 14:46 227 6 gusting 15 4.4
2019-Dec-05 14:30 292 4 gusting 12 3.9
2019-Dec-05 14:16 254 1 gusting 14 3.9
2019-Dec-05 14:00 300 1 gusting 12 3.3
2019-Dec-05 13:45 297 2 gusting 12 3.3
2019-Dec-05 13:30 261 1 gusting 8 3.3
2019-Dec-05 13:15 254 2.8
2019-Dec-05 13:00 244 0 gusting 6 2.2
2019-Dec-05 12:47 262 0 gusting 6 2.2
2019-Dec-05 12:31
2019-Dec-05 12:17
2019-Dec-05 12:01
2019-Dec-05 11:46
2019-Dec-05 11:30
2019-Dec-05 11:17
2019-Dec-05 11:00
2019-Dec-05 10:46
2019-Dec-05 10:30
2019-Dec-05 10:15
2019-Dec-05 10:00
2019-Dec-05 09:45
2019-Dec-05 09:30
2019-Dec-05 09:16
2019-Dec-05 09:01
2019-Dec-05 08:46
2019-Dec-05 08:31
2019-Dec-05 08:16
2019-Dec-05 08:01
2019-Dec-05 07:46
2019-Dec-05 07:30 265 1.7
2019-Dec-05 07:15 267 0 gusting 6 1.7
2019-Dec-05 07:00 256 1.7
2019-Dec-05 06:45 268 2.2
2019-Dec-05 06:31 246 0 gusting 6 2.2
2019-Dec-05 06:15 250 0 gusting 7 2.2
2019-Dec-05 06:01 269 0 gusting 6 2.2
2019-Dec-05 05:45 319 0 gusting 6 2.2
2019-Dec-05 05:30 238 0 gusting 5 2.8
2019-Dec-05 05:15 246 2.8
2019-Dec-05 05:00 263 1 gusting 6 2.8
2019-Dec-05 04:45 281 2.8
2019-Dec-05 04:30 263 0 gusting 6 2.8
2019-Dec-05 04:15 254 0 gusting 6 2.8
2019-Dec-05 04:00 262 2.8
2019-Dec-05 03:45 305 2.8
2019-Dec-05 03:30 252 2.8
2019-Dec-05 03:16 270 2.8
2019-Dec-05 03:02 259 0 gusting 6 2.8
2019-Dec-05 02:47 217 0 gusting 7 2.8
2019-Dec-05 02:32 232 2.8
2019-Dec-05 02:16 257 2.8
2019-Dec-05 02:02 271 2.8
2019-Dec-05 01:46 286 0 gusting 5 2.8
2019-Dec-05 01:32 270 0 gusting 3 2.8
2019-Dec-05 01:16 265 1 gusting 8 2.8
2019-Dec-05 01:01 255 0 gusting 7 2.8
2019-Dec-05 00:46 269 0 gusting 6 2.8
2019-Dec-05 00:31 275 2.2
2019-Dec-05 00:16 242 0 gusting 6 2.8
2019-Dec-05 00:01 273 2.8
2019-Dec-04 23:46 254 0 gusting 7 2.8
2019-Dec-04 23:33 242 2.8
2019-Dec-04 23:16 292 2.8
2019-Dec-04 23:04 289 2.8
2019-Dec-04 22:46 249 2.8
2019-Dec-04 22:31 255 2.8
2019-Dec-04 22:16 273 2.8
2019-Dec-04 22:01 274 2.8
2019-Dec-04 21:47 271 2.8
2019-Dec-04 21:32 253 2.8
2019-Dec-04 21:16 267 2.8
2019-Dec-04 21:01 276 2.8
2019-Dec-04 20:46 240 3.3
2019-Dec-04 20:31 235 3.3
2019-Dec-04 20:16 187 2.8
2019-Dec-04 20:01 259 2.8
2019-Dec-04 19:46 221 2.8
2019-Dec-04 19:31 223 3.3
2019-Dec-04 19:16 238 2.8
2019-Dec-04 19:01 253 2.8
2019-Dec-04 18:46 230 2.8
2019-Dec-04 18:31 217 0 gusting 6 2.8
2019-Dec-04 18:17 264 2.8
2019-Dec-04 18:00 261 2.8
2019-Dec-04 17:46 236 2.8
2019-Dec-04 17:30 229 2.8
2019-Dec-04 17:16 279 2.8
2019-Dec-04 17:00 253 2.8
2019-Dec-04 16:45 207 2.8
2019-Dec-04 16:30 262 2.8
2019-Dec-04 16:15 213 0 gusting 6 2.8
2019-Dec-04 16:02 263 2.8
2019-Dec-04 15:45 254 2.8
2019-Dec-04 15:30 215 2.2
2019-Dec-04 15:15 214 2.2
2019-Dec-04 15:00 236 2.2
2019-Dec-04 14:45 223 2.2
2019-Dec-04 14:31 259 2.2
2019-Dec-04 14:16 225 1.7
2019-Dec-04 14:02 227 1.7
2019-Dec-04 13:47 242 1.7
2019-Dec-04 13:31 252 1.7
2019-Dec-04 13:17 240 1.7
2019-Dec-04 13:01
2019-Dec-04 12:45
2019-Dec-04 12:31
2019-Dec-04 12:16
2019-Dec-04 12:00
2019-Dec-04 11:46
2019-Dec-04 11:31
2019-Dec-04 11:15
2019-Dec-04 11:00
2019-Dec-04 10:45
2019-Dec-04 10:30
2019-Dec-04 10:01
2019-Dec-04 09:47
2019-Dec-04 09:33
2019-Dec-04 09:17
2019-Dec-04 09:01
2019-Dec-04 08:46
2019-Dec-04 08:31
2019-Dec-04 08:15
2019-Dec-04 08:01